Regional Weather Roundup
Issued by NWS Green Bay, WI

Home | Current Version | Previous Version | Text Only | Print | Product List | Glossary On
Versions: 1 2 3 4 5 6 7 8 9 10 11 12 13 14 15 16 17 18 19 20 21 22 23 24 25 26 27 28 29 30 31 32 33 34 35 36 37 38 39 40 41 42 43 44 45 46 47 48 49 50
000
ASUS43 KGRB 261711
RWRGRB

NORTH-CENTRAL AND NORTHEAST WISCONSIN REGIONAL WEATHER ROUNDUP
NATIONAL WEATHER SERVICE GREEN BAY WI
1200 PM CDT MON SEP 26 2016

WIZ005-009-010>012-018-019-261800-
NORTH CENTRAL WISCONSIN

CITY           SKY/WX    TMP DP  RH WIND       PRES   REMARKS
IRONWOOD       LGT RAIN  49  47  93 W20G26    29.68R
MANITOWISH WTR DRIZZLE   47  47 100 W10G20    29.70S
ARBOR VITAE    DRIZZLE   52  48  88 W10G21    29.71F
EAGLE RIVER    CLOUDY    49  46  90 W18G26    29.69S
LAND O LAKES   DRIZZLE   49  46  92 W12G20    29.69S
RHINELANDER    CLOUDY    52  44  74 W21G31    29.73F
PHILLIPS       CLOUDY    52  42  68 W9G20     29.75S
ANTIGO         CLOUDY    54  42  62 W26G32    29.76S
TOMAHAWK       DRIZZLE   51  42  69 W14G24    29.77R
MERRILL        CLOUDY    57  42  56 W16G22    29.77S
$$

WIZ013-073-261800-
NORTHEAST WISCONSIN

CITY           SKY/WX    TMP DP  RH WIND       PRES   REMARKS
IRON MOUNTAIN  CLOUDY    54  44  69 W17G28    29.66S
MARINETTE      CLOUDY    59  46  62 W9G23     29.73F
OCONTO         CLOUDY    58  45  61 W17G24    29.75F
$$

WIZ017-030-035>037-045-261800-
CENTRAL WISCONSIN

CITY           SKY/WX    TMP DP  RH WIND       PRES   REMARKS
MEDFORD        CLOUDY    55  39  53 W23G30    29.79S
WAUSAU         PTSUNNY   58  39  49 W22G37    29.77F
MOSINEE        PTSUNNY   57  39  51 W18G31    29.81S
MARSHFIELD     PTSUNNY   60  39  45 W24G33    29.82F
WISC RAPIDS    PTSUNNY   61  41  47 NW15G29   29.85F
STEVENS POINT    N/A     57  38  47 W17G29    29.82F
WAUPACA        MOSUNNY   64  41  43 W20G29    29.82S
SHAWANO        CLOUDY    63  43  47 W17G31    29.76F
CLINTONVILLE   NOT AVBL
WAUTOMA        PTSUNNY   63  40  42 W25G36    29.85F
$$

WIZ038-039-048-051-261800-
FOX VALLEY

CITY           SKY/WX    TMP DP  RH WIND       PRES   REMARKS
NWS GREEN BAY  LGT RAIN  62  44  51 W21G29    29.78F
APPLETON       PTSUNNY   61  37  41 W25G35    29.80F
OSHKOSH        MOSUNNY   62  39  42 W18G29    29.82F
FOND DU LAC    MOSUNNY   62  38  40 W22G33    29.85F
$$

WIZ022-050-052-261800-
EAST CENTRAL WISCONSIN

CITY           SKY/WX    TMP DP  RH WIND       PRES   REMARKS
EPHRAIM        CLOUDY    55  46  72 W15G22    29.73S
WASHINGTON ISL CLOUDY    56  47  71 SW22G31   29.71S
STURGEON BAY   PTSUNNY   59  46  62 W17G26    29.76S
MANITOWOC      MOSUNNY   63  43  48 W17G24    29.80F
SHEBOYGAN      PTSUNNY   63  39  41 W22G37    29.84F
$$

LMZ563-521-522-541>543-261800-
LAKESHORE

STATION/POSITION TIME  TEMP    WIND        PRES    VSBY  WAVE
                       AIR SEA DIR/SP/G                  HT/PER
                 (UTC) (F)     (DEG/KT/KT) (MB)    (MI)  (FT/S)
SHEBOYGAN LKSHOR 1700   62     250/ 21/ 27 1009.6F
KEWAUNEE LKSHORE 1600   58     260/ 10/ 16 1008.6S
NORTHPORT PIER   1600   58     250/  5/ 17 1006.4F
N MID LAKE BUOY  1650   58 67  250/ 25/ 31 1005.0F         6/ 7
CHAMBERS ISLAND  1600   56     210/ 14/ 23 1006.4S
MENOMINEE LKSHOR 1600   56     230/ 16/ 24 1006.5R
$$




USA.gov is the U.S. government's official web portal to all federal, state and local government web resources and services.